San Antonio, TX

7:37 AM CST on January 18, 2017 (GMT -0600)
San Antonio International

Weather History for KSAT - August, 2014

Change the Weather History Date:

Saturday, August 23, 2014

  Actual Average Record
Temperature  
Mean Temperature 90 °F 85 °F  
Max Temperature 101 °F 96 °F 104 °F (1917)
Min Temperature 78 °F 75 °F 62 °F (1891)
Degree Days  
Heating Degree Days 0 0  
Month to date heating degree days 0 0  
Since 1 June heating degree days 0 0  
Since 1 July heating degree days 0 0  
Cooling Degree Days 25 20  
Month to date cooling degree days 534 479  
Year to date cooling degree days 2413 2239  
Since 1 June cooling degree days 1709 1610  
Growing Degree Days 39 (Base 50)    
Moisture  
Dew Point 68 °F    
Average Humidity 56    
Maximum Humidity 85    
Minimum Humidity 27    
Precipitation  
Precipitation 0.00 in 0.07 in 1.95 in (1998)
Month to date precipitation 0.08 1.30  
Year to date precipitation 16.07 20.15  
Snow  
Snow 0.00 in - - ()
Month to date snowfall 0.0  
Since 1 June snowfall 0.0  
Since 1 July snowfall 0.0  
Snow Depth 0.00 in    
Sea Level Pressure  
Sea Level Pressure 29.94 in    
Wind  
Wind Speed 11 mph (SSE)    
Max Wind Speed 23 mph    
Max Gust Speed 28 mph    
Visibility 10 miles    
Events      
T = Trace of Precipitation, MM = Missing Value Source: NWS Daily Summary

Daily Weather History Graph

Daily Weather History Graph

Search for Another Location

Airport or City:

Trip Planner

Search our weather history database for the weather conditions in past years. The results will help you decide how hot, cold, wet, or windy it might be!

Date:

Astronomy

Aug. 23, 2014 Rise Set
Actual Time 7:06 AM CDT 8:06 PM CDT
Civil Twilight 6:41 AM CDT 8:30 PM CDT
Nautical Twilight 6:12 AM CDT 8:59 PM CDT
Astronomical Twilight 5:42 AM CDT 9:29 PM CDT
Moon 5:26 AM CDT (8/23) 6:50 PM CDT (8/23)
Length of Visible Light 13h 48m
Length of Day
12h 59m
Waning Crescent, 3% of the Moon is Illuminated
Aug 23
Waning Crescent
Aug 25
New
Sep 2
First Quarter
Sep 8
Full
Sep 15
Last Quarter

Hourly Weather History & Observations

Time (CDT) Temp. Heat Index Dew Point Humidity Pressure Visibility Wind Dir Wind Speed Gust Speed Precip Events Conditions
12:51 AM 80.6 °F 84.6 °F 71.6 °F 74% 30.03 in 10.0 mi SSE 13.8 mph - N/A   Clear
1:27 AM 80.1 °F 84.2 °F 73.0 °F 79% 30.03 in 10.0 mi SSE 9.2 mph - N/A   Mostly Cloudy
1:51 AM 79.0 °F - 73.0 °F 82% 29.97 in 10.0 mi South 6.9 mph - N/A   Scattered Clouds
2:51 AM 78.8 °F - 73.4 °F 83% 30.02 in 10.0 mi South 9.2 mph - N/A   Scattered Clouds
3:51 AM 79.0 °F - 73.0 °F 82% 29.97 in 10.0 mi South 9.2 mph - N/A   Scattered Clouds
4:51 AM 78.1 °F - 73.0 °F 84% 29.96 in 10.0 mi South 6.9 mph - N/A   Scattered Clouds
5:19 AM 78.1 °F - 73.0 °F 84% 30.02 in 10.0 mi South 12.7 mph - N/A   Mostly Cloudy
5:51 AM 79.0 °F - 73.0 °F 82% 29.96 in 10.0 mi South 9.2 mph - N/A   Overcast
6:51 AM 78.1 °F - 73.0 °F 84% 29.97 in 10.0 mi South 9.2 mph - N/A   Mostly Cloudy
7:51 AM 79.0 °F - 73.0 °F 82% 29.98 in 10.0 mi South 8.1 mph - N/A   Mostly Cloudy
8:51 AM 81.0 °F 85.8 °F 73.0 °F 77% 29.99 in 10.0 mi SSE 9.2 mph - N/A   Mostly Cloudy
9:51 AM 84.2 °F 89.6 °F 71.6 °F 66% 30.04 in 10.0 mi South 10.4 mph 18.4 mph N/A   Mostly Cloudy
10:51 AM 87.1 °F 92.0 °F 70.0 °F 57% 29.99 in 10.0 mi South 10.4 mph - N/A   Partly Cloudy
11:51 AM 89.1 °F 94.1 °F 70.0 °F 53% 29.98 in 10.0 mi South 9.2 mph - N/A   Partly Cloudy
12:51 PM 93.2 °F 98.8 °F 69.8 °F 46% 30.01 in 10.0 mi South 10.4 mph 18.4 mph N/A   Partly Cloudy
1:51 PM 96.1 °F 99.3 °F 66.0 °F 37% 29.93 in 10.0 mi SSE 11.5 mph 18.4 mph N/A   Partly Cloudy
2:51 PM 98.1 °F 99.6 °F 63.0 °F 31% 29.90 in 10.0 mi South 12.7 mph - N/A   Partly Cloudy
3:51 PM 98.1 °F 99.6 °F 63.0 °F 31% 29.87 in 10.0 mi Variable 4.6 mph - N/A   Partly Cloudy
4:51 PM 99.0 °F 99.5 °F 61.0 °F 28% 29.84 in 10.0 mi SE 13.8 mph 19.6 mph N/A   Partly Cloudy
5:51 PM 99.0 °F 98.6 °F 59.0 °F 26% 29.83 in 10.0 mi SE 9.2 mph - N/A   Partly Cloudy
6:51 PM 98.1 °F 97.7 °F 59.0 °F 27% 29.82 in 10.0 mi SSE 13.8 mph - N/A   Partly Cloudy
7:51 PM 96.1 °F 94.8 °F 57.0 °F 27% 29.82 in 10.0 mi SSE 10.4 mph - N/A   Partly Cloudy
8:51 PM 93.0 °F 94.2 °F 63.0 °F 37% 29.84 in 10.0 mi SSE 15.0 mph - N/A   Partly Cloudy
9:51 PM 89.6 °F 91.1 °F 64.4 °F 43% 29.93 in 10.0 mi SSE 20.7 mph 27.6 mph N/A   Clear
10:51 PM 86.0 °F 88.2 °F 66.0 °F 51% 29.89 in 10.0 mi SE 16.1 mph - N/A   Clear
11:51 PM 84.0 °F 88.4 °F 70.0 °F 63% 29.90 in 10.0 mi SSE 12.7 mph - N/A   Clear